Weather History for KMZG - April, 2014

Change the Weather History Date:

Friday, April 18, 2014

  Actual Average Record
Temperature  
Mean Temperature 68 °F -  
Max Temperature 71 °F - - ()
Min Temperature 64 °F - - ()
Cooling Degree Days 2    
Growing Degree Days 18 (Base 50)    
Moisture  
Dew Point 61 °F    
Average Humidity 78    
Maximum Humidity 94    
Minimum Humidity 64    
Precipitation  
Precipitation 0.00 in - - ()
Sea Level Pressure  
Sea Level Pressure 30.12 in    
Wind  
Wind Speed 12 mph (NE)    
Max Wind Speed 25 mph    
Max Gust Speed 28 mph    
Visibility 10 miles    
Events      
Averages and records for this station are not official NWS values.
T = Trace of Precipitation, MM = Missing Value Source: NWS Daily Summary

Daily Weather History Graph

Daily Weather History Graph

Search for Another Location

Airport or City:

Trip Planner

Search our weather history database for the weather conditions in past years. The results will help you decide how hot, cold, wet, or windy it might be!

Date:

Astronomy

Apr. 18, 2014 Rise Set
Actual Time 6:57 AM CDT 7:51 PM CDT
Civil Twilight 6:32 AM CDT 8:15 PM CDT
Nautical Twilight 6:04 AM CDT 8:44 PM CDT
Astronomical Twilight 5:35 AM CDT 9:13 PM CDT
Moon 11:26 PM CDT (4/18) 9:31 AM CDT (4/18)
Length of Visible Light 13h 42m
Length of Day
12h 54m
Waning Gibbous, 87% of the Moon is Illuminated
Apr 18
Waning Gibbous
Apr 22
Last Quarter
Apr 29
New
May 6
First Quarter
May 14
Full

Hourly Weather History & Observations

Time (CDT) Temp. Dew Point Humidity Pressure Visibility Wind Dir Wind Speed Gust Speed Precip Events Conditions
12:15 AM 69.8 °F 64.4 °F 83% 30.10 in 8.0 mi ENE 8.1 mph 17.3 mph N/A   Overcast
12:35 AM 69.8 °F 64.4 °F 83% 30.10 in 8.0 mi NE 13.8 mph - N/A   Overcast
12:55 AM 69.8 °F 64.4 °F 83% 30.10 in 9.0 mi NE 11.5 mph 17.3 mph N/A   Overcast
1:15 AM 69.8 °F 64.4 °F 83% 30.10 in 9.0 mi NE 9.2 mph 16.1 mph N/A   Overcast
1:35 AM 69.8 °F 64.4 °F 83% 30.10 in 10.0 mi NE 10.4 mph 17.3 mph N/A   Overcast
1:55 AM 69.8 °F 64.4 °F 83% 30.09 in 10.0 mi NE 10.4 mph 17.3 mph N/A   Overcast
2:15 AM 69.8 °F 64.4 °F 83% 30.09 in 10.0 mi NE 12.7 mph - N/A   Overcast
2:35 AM 69.8 °F 64.4 °F 83% 30.08 in 10.0 mi NE 13.8 mph - N/A   Overcast
2:55 AM 69.8 °F 64.4 °F 83% 30.08 in 10.0 mi NE 10.4 mph 17.3 mph N/A   Overcast
3:15 AM 68.0 °F 64.4 °F 88% 30.08 in 10.0 mi NE 10.4 mph - N/A   Overcast
3:35 AM 68.0 °F 62.6 °F 83% 30.07 in 10.0 mi NE 12.7 mph - N/A   Overcast
3:55 AM 68.0 °F 64.4 °F 88% 30.08 in 10.0 mi NE 10.4 mph - N/A   Overcast
4:15 AM 68.0 °F 64.4 °F 88% 30.08 in 10.0 mi NNE 9.2 mph 16.1 mph N/A   Overcast
4:35 AM 68.0 °F 64.4 °F 88% 30.07 in 10.0 mi NNE 12.7 mph 18.4 mph N/A   Overcast
4:55 AM 68.0 °F 64.4 °F 88% 30.08 in 10.0 mi NNE 11.5 mph - N/A   Mostly Cloudy
5:15 AM 68.0 °F 64.4 °F 88% 30.08 in 10.0 mi NNE 16.1 mph - N/A   Mostly Cloudy
5:35 AM 66.2 °F 62.6 °F 88% 30.08 in 10.0 mi NNE 17.3 mph - N/A   Scattered Clouds
5:55 AM 66.2 °F 64.4 °F 94% 30.09 in 10.0 mi NNE 18.4 mph - N/A   Partly Cloudy
6:15 AM 66.2 °F 62.6 °F 88% 30.09 in 10.0 mi NNE 18.4 mph - N/A   Scattered Clouds
6:35 AM 66.2 °F 62.6 °F 88% 30.10 in 10.0 mi NNE 13.8 mph - N/A   Scattered Clouds
6:55 AM 66.2 °F 62.6 °F 88% 30.10 in 10.0 mi NNE 10.4 mph 18.4 mph N/A   Scattered Clouds
7:15 AM 66.2 °F 62.6 °F 88% 30.11 in 9.0 mi NNE 19.6 mph - N/A   Scattered Clouds
7:35 AM 66.2 °F 62.6 °F 88% 30.11 in 7.0 mi North 23.0 mph - N/A   Mostly Cloudy
7:55 AM 66.2 °F 62.6 °F 88% 30.12 in 8.0 mi NNE 25.3 mph - N/A   Scattered Clouds
8:15 AM 66.2 °F 62.6 °F 88% 30.13 in 9.0 mi NNE 24.2 mph - N/A   Clear
8:35 AM 66.2 °F 62.6 °F 88% 30.13 in 9.0 mi NNE 21.9 mph 27.6 mph N/A   Scattered Clouds
8:55 AM 64.4 °F 62.6 °F 94% 30.14 in 8.0 mi NNE 23.0 mph - N/A   Scattered Clouds
9:15 AM 64.4 °F 60.8 °F 88% 30.14 in 9.0 mi NNE 23.0 mph - N/A   Scattered Clouds
9:35 AM 66.2 °F 60.8 °F 83% 30.15 in 9.0 mi NNE 23.0 mph - N/A   Clear
9:55 AM 66.2 °F 60.8 °F 83% 30.15 in 9.0 mi NNE 21.9 mph - N/A   Scattered Clouds
10:15 AM 66.2 °F 60.8 °F 83% 30.16 in 9.0 mi NE 17.3 mph 23.0 mph N/A   Scattered Clouds
10:35 AM 68.0 °F 60.8 °F 78% 30.16 in 10.0 mi NE 11.5 mph 20.7 mph N/A   Clear
10:55 AM 69.8 °F 60.8 °F 73% 30.17 in 9.0 mi NE 9.2 mph 18.4 mph N/A   Clear
11:15 AM 69.8 °F 60.8 °F 73% 30.17 in 10.0 mi NE 10.4 mph - N/A   Scattered Clouds
11:35 AM 69.8 °F 60.8 °F 73% 30.17 in 10.0 mi NNE 15.0 mph - N/A   Partly Cloudy
11:55 AM 68.0 °F 59.0 °F 73% 30.17 in 10.0 mi NNE 17.3 mph - N/A   Clear
12:15 PM 68.0 °F 59.0 °F 73% 30.17 in 10.0 mi NNE 17.3 mph - N/A   Clear
12:35 PM 66.2 °F 59.0 °F 78% 30.17 in 10.0 mi NNE 16.1 mph - N/A   Clear
12:55 PM 68.0 °F 60.8 °F 78% 30.16 in 10.0 mi NNE 11.5 mph - N/A   Partly Cloudy
1:15 PM 68.0 °F 60.8 °F 78% 30.16 in 10.0 mi NNE 12.7 mph - N/A   Clear
1:35 PM 66.2 °F 60.8 °F 83% 30.16 in 10.0 mi NNE 11.5 mph 19.6 mph N/A   Clear
1:55 PM 66.2 °F 60.8 °F 83% 30.15 in 10.0 mi NNE 15.0 mph 20.7 mph N/A   Partly Cloudy
2:15 PM 68.0 °F 59.0 °F 73% 30.15 in 10.0 mi NNE 12.7 mph - N/A   Clear
2:35 PM 69.8 °F 59.0 °F 68% 30.14 in 10.0 mi NNE 10.4 mph - N/A   Clear
2:55 PM 69.8 °F 59.0 °F 68% 30.13 in 10.0 mi NE 9.2 mph - N/A   Clear
3:15 PM 69.8 °F 59.0 °F 68% 30.13 in 10.0 mi Variable 6.9 mph 15.0 mph N/A   Clear
3:35 PM 69.8 °F 59.0 °F 68% 30.12 in 10.0 mi NE 8.1 mph - N/A   Clear
3:55 PM 69.8 °F 59.0 °F 68% 30.12 in 10.0 mi Calm Calm - N/A   Clear
4:15 PM 71.6 °F 59.0 °F 64% 30.11 in 9.0 mi Calm Calm - N/A   Clear
4:35 PM 71.6 °F 59.0 °F 64% 30.10 in 7.0 mi Variable 3.5 mph - N/A   Clear
4:55 PM 69.8 °F 59.0 °F 68% 30.09 in 7.0 mi ENE 6.9 mph - N/A   Clear
5:15 PM 69.8 °F 59.0 °F 68% 30.10 in 8.0 mi Variable 5.8 mph - N/A   Clear
5:35 PM 69.8 °F 59.0 °F 68% 30.10 in 9.0 mi East 8.1 mph - N/A   Clear
5:55 PM 69.8 °F 59.0 °F 68% 30.09 in 8.0 mi East 8.1 mph - N/A   Clear
6:15 PM 69.8 °F 59.0 °F 68% 30.10 in 9.0 mi East 6.9 mph - N/A   Clear
6:35 PM 68.0 °F 59.0 °F 73% 30.10 in 9.0 mi East 8.1 mph - N/A   Clear
7:15 PM 69.8 °F 59.0 °F 68% 30.10 in 9.0 mi East 10.4 mph - N/A   Clear
7:35 PM 68.0 °F 59.0 °F 73% 30.10 in 9.0 mi East 9.2 mph - N/A   Clear
7:55 PM 68.0 °F 59.0 °F 73% 30.10 in 10.0 mi East 8.1 mph - N/A   Clear
8:15 PM 68.0 °F 57.2 °F 68% 30.10 in 10.0 mi East 6.9 mph - N/A   Clear
8:35 PM 68.0 °F 57.2 °F 68% 30.11 in 10.0 mi East 8.1 mph 15.0 mph N/A   Clear
8:55 PM 68.0 °F 57.2 °F 68% 30.11 in 10.0 mi ESE 12.7 mph - N/A   Clear
9:15 PM 68.0 °F 59.0 °F 73% 30.12 in 10.0 mi East 8.1 mph - N/A   Clear
9:35 PM 68.0 °F 59.0 °F 73% 30.13 in 10.0 mi ESE 15.0 mph - N/A   Clear
9:55 PM 68.0 °F 59.0 °F 73% 30.13 in 10.0 mi ESE 15.0 mph - N/A   Clear
10:15 PM 68.0 °F 59.0 °F 73% 30.13 in - ESE 12.7 mph - N/A   Clear
10:35 PM 68.0 °F 57.2 °F 68% 30.13 in 10.0 mi ESE 12.7 mph - N/A   Clear
10:55 PM 68.0 °F 59.0 °F 73% 30.12 in 10.0 mi ESE 12.7 mph - N/A   Clear
11:15 PM 68.0 °F 59.0 °F 73% 30.13 in 10.0 mi ESE 12.7 mph - N/A   Clear
11:35 PM 68.0 °F 59.0 °F 73% 30.13 in 10.0 mi ESE 11.5 mph - N/A   Clear
11:55 PM 68.0 °F 59.0 °F 73% 30.12 in 10.0 mi East 9.2 mph 15.0 mph N/A   Clear